Lapse_Rate
7.1 8.0 8.6 7.3 6.5 6.5 6.5 6.5 6.5 6.5 6.5 6.0 6.2 6.4 6.4 6.3 6.5 6.5 7.8 7.0 8.3 5.6 5.9 5.6 6.0 5.6 5.6 5.4 5.3 5.1 4.9 5.3 5.9 6.3 6.6 6.3 6.3 6.1 6.0 6.1 5.9 5.9 6.6 7.3 8.0 7.7 7.9 5.5 4.7
7.8 8.7 7.8 6.5 6.5 6.5 6.5 6.5 6.5 6.5 6.4 6.2 6.2 6.4 6.6 6.5 7.2 7.7 7.0 7.1 7.7 7.3 5.6 6.3 6.0 5.8 5.7 5.6 5.3 4.9 5.3 5.7 5.7 6.2 6.4 6.2 6.4 6.2 6.2 6.3 5.8 8.0 8.5 7.1 6.3 5.9 5.7 5.0 4.5
7.9 9.1 6.7 6.5 6.5 6.5 6.5 6.5 6.5 6.3 6.2 5.8 6.4 6.6 5.5 6.7 6.8 7.4 5.7 8.1 7.0 7.0 5.9 6.2 5.9 5.9 5.8 5.7 5.3 5.2 5.7 6.2 5.9 6.4 6.3 6.2 6.3 6.4 6.5 6.3 6.4 8.0 8.2 5.6 5.3 5.2 5.0 4.8 4.3
8.4 7.6 7.0 6.5 6.5 6.5 6.5 6.5 6.5 6.5 5.8 6.1 5.9 6.5 7.1 7.5 7.2 5.1 6.7 6.5 6.5 7.4 7.8 4.9 5.8 5.9 5.7 5.7 5.3 5.6 5.7 6.4 5.9 6.6 6.4 6.3 6.4 6.4 6.5 5.8 6.4 7.4 5.7 5.0 4.9 4.8 4.7 4.6 4.5
7.9 6.8 6.5 6.5 6.5 6.5 6.5 6.4 6.4 6.5 6.2 5.8 6.2 6.3 6.0 6.2 5.5 3.5 3.8 4.5 6.4 7.4 6.2 5.5 5.9 5.9 5.6 5.4 5.3 5.7 5.7 6.3 5.9 6.3 6.2 6.2 6.5 6.5 6.2 5.6 6.1 5.7 4.9 4.7 5.5 4.8 4.7 4.6 4.5
6.5 6.5 6.5 6.5 6.5 6.5 6.5 6.5 6.4 6.3 6.0 6.2 6.1 5.9 4.7 4.6 3.7 3.5 2.0 1.5 2.2 2.4 5.6 6.4 6.3 6.0 5.7 5.5 5.4 5.7 5.5 6.1 5.8 6.2 6.2 6.4 6.7 6.6 6.1 5.6 4.8 4.5 4.5 4.8 4.6 4.7 4.7 4.5 4.4
6.5 6.5 6.5 6.5 6.5 6.5 6.5 6.4 6.3 6.3 6.2 6.1 6.4 6.5 6.3 4.2 3.8 1.4 1.6 1.1 0.7 1.3 2.3 5.5 5.8 6.0 5.9 5.7 5.8 6.0 5.4 5.6 6.4 6.2 6.4 6.3 6.6 6.2 6.3 5.9 4.6 4.7 4.7 4.9 4.8 4.7 4.4 4.3 4.2
6.7 6.5 6.5 6.5 6.5 6.5 6.4 6.4 6.2 5.9 6.4 7.0 6.7 6.5 5.9 4.7 2.8 2.9 1.7 1.0 0.7 0.6 2.4 2.6 4.4 6.1 5.9 5.4 5.6 6.0 5.1 5.2 6.1 5.9 5.6 5.7 6.1 5.1 4.9 5.6 4.4 4.8 4.6 4.6 4.5 4.5 4.4 4.1 3.9
7.5 6.5 6.5 6.5 6.5 6.5 6.5 6.5 6.7 6.7 6.0 6.7 6.3 6.4 6.5 4.9 2.9 2.6 3.7 2.1 1.7 1.1 3.0 3.3 5.2 3.4 3.5 6.0 5.6 5.8 5.4 4.6 5.2 4.5 5.2 5.7 6.2 5.3 4.3 4.6 4.1 4.3 4.3 4.3 4.4 4.3 4.1 4.0 3.8
6.4 6.5 6.5 6.5 6.5 6.5 6.5 6.4 6.3 6.3 6.3 5.8 6.1 6.7 6.6 3.8 3.3 2.9 2.4 2.3 3.4 1.7 1.6 2.5 4.3 3.4 4.8 4.7 5.2 6.0 5.5 4.2 5.4 4.8 5.2 6.6 6.2 5.4 4.7 4.4 4.4 3.9 3.9 3.9 4.1 4.0 3.8 3.9 4.0
6.5 6.5 6.5 6.6 6.8 6.8 6.5 6.5 6.8 6.4 6.5 6.4 6.3 5.9 6.4 4.7 4.3 4.0 3.4 1.8 1.3 2.3 2.0 2.7 5.3 4.4 4.9 4.7 5.0 6.5 6.0 5.0 5.3 5.5 6.2 7.4 6.5 5.5 3.8 3.4 3.3 2.9 3.4 3.4 3.6 3.5 3.5 4.0 4.3
6.5 6.7 6.8 6.7 7.0 6.7 6.5 6.9 6.5 6.4 6.4 7.0 6.2 7.0 5.4 4.2 5.1 5.1 4.1 2.9 1.9 1.7 2.5 3.2 3.2 3.7 3.3 4.5 5.4 6.6 6.3 6.0 6.5 6.7 7.3 7.2 6.7 6.7 5.7 4.3 3.4 3.3 3.1 3.4 3.8 3.5 4.5 5.1 6.8
6.5 6.5 6.8 6.9 6.8 6.8 7.0 6.5 6.5 6.5 7.0 7.5 7.1 6.6 5.8 6.6 5.5 5.3 4.3 4.4 4.2 2.7 3.4 3.2 4.0 3.0 2.6 5.2 4.8 5.9 7.7 7.4 7.7 7.7 7.2 7.6 6.3 5.4 6.4 5.3 4.6 4.4 4.6 4.8 4.8 4.9 5.6 6.4 7.3
6.6 6.6 6.6 6.8 6.7 6.9 6.6 6.5 6.4 6.7 7.2 7.1 7.1 6.2 6.4 5.7 5.1 3.8 5.6 3.5 4.1 4.0 3.4 3.6 4.9 4.6 1.9 3.0 4.1 5.9 5.4 7.5 7.8 7.7 7.6 7.7 6.7 6.0 6.3 5.6 5.0 5.6 6.0 6.3 6.3 5.8 6.0 5.9 6.8
6.7 6.5 6.5 6.5 6.6 6.5 6.7 6.5 6.5 6.7 7.2 6.9 7.1 7.0 6.5 5.2 5.8 6.2 5.7 4.7 4.3 5.0 4.5 4.2 5.2 4.1 2.9 3.0 4.3 6.2 4.8 6.3 5.9 6.9 8.0 8.0 7.0 6.1 5.8 5.6 4.9 5.2 6.3 6.7 6.4 6.8 7.3 6.7 6.7
6.5 6.5 6.5 6.5 6.5 6.5 6.5 6.5 6.5 6.8 6.7 6.5 6.7 6.8 6.1 5.9 6.6 5.9 5.6 7.1 4.3 5.4 4.9 5.0 4.9 4.4 4.8 3.8 4.8 6.1 5.2 4.4 5.3 7.0 7.6 8.2 7.8 6.9 5.7 4.8 4.5 5.9 6.1 6.2 5.7 6.0 6.3 6.1 6.2
6.5 6.5 6.5 6.5 6.5 6.5 6.5 6.5 6.5 6.9 6.7 6.4 6.5 5.7 5.8 5.6 5.4 6.3 6.3 4.9 5.8 5.0 4.8 4.7 4.7 4.9 4.4 3.1 4.9 5.4 5.9 5.4 5.5 6.3 6.4 7.6 7.3 7.0 6.0 5.7 6.2 7.6 6.8 6.3 6.3 6.6 6.4 6.3 6.0
6.5 6.5 6.5 6.5 6.5 6.5 6.5 6.5 6.5 6.1 6.4 5.8 6.1 6.6 5.3 5.4 5.6 4.3 3.9 3.7 6.3 5.8 5.6 5.1 5.7 4.8 4.9 4.0 4.9 6.1 4.4 5.5 5.4 5.1 5.6 6.7 6.8 7.1 6.8 6.4 6.7 7.8 6.8 6.5 7.0 6.8 6.6 6.3 6.3
6.5 6.5 6.5 6.5 6.5 6.5 6.5 6.5 6.5 5.9 5.2 5.6 5.2 5.5 5.0 4.4 3.7 4.5 4.5 4.3 3.9 5.6 5.9 5.5 5.4 5.5 5.9 5.1 5.7 4.9 4.1 4.6 5.2 4.8 5.5 6.4 6.1 5.7 6.4 5.5 5.1 5.7 5.7 7.1 7.1 6.9 6.8 6.1 6.0
6.5 6.5 6.5 6.5 6.5 6.5 6.5 6.5 6.5 6.5 6.4 6.2 6.1 4.9 5.5 5.0 5.2 5.5 5.0 5.4 5.1 5.4 6.4 5.7 5.6 5.0 5.7 5.3 5.0 5.8 4.8 4.1 4.3 4.2 6.0 6.0 5.7 6.1 5.9 5.5 5.2 5.6 4.7 5.4 5.6 5.0 6.0 6.4 5.9
6.5 6.5 6.5 6.5 6.5 6.5 6.5 6.5 6.5 6.5 6.4 6.4 6.8 6.5 4.2 4.8 6.7 5.6 5.6 6.1 4.8 5.4 5.3 5.5 5.5 5.9 5.6 5.2 5.1 5.4 5.0 4.6 4.9 5.3 4.7 3.5 4.9 5.5 5.4 5.3 4.7 4.1 3.7 3.2 4.1 4.9 4.7 4.9 5.6
6.5 6.5 6.5 6.5 6.5 6.5 6.5 6.5 6.5 6.5 6.5 6.5 6.1 6.5 6.1 6.0 6.4 5.5 4.8 4.6 5.6 6.0 4.7 5.0 5.5 5.2 5.3 4.8 5.0 5.4 5.2 5.3 4.5 5.0 4.6 4.3 4.8 4.8 4.8 4.5 4.2 3.9 3.1 3.1 3.5 3.8 3.7 4.1 5.0
6.5 6.5 6.5 6.5 6.5 6.5 6.5 6.5 6.5 6.5 6.5 6.5 6.5 6.8 6.8 6.3 5.2 4.8 4.1 4.1 3.9 4.0 5.0 5.3 5.1 5.4 5.1 4.7 5.1 4.4 4.6 5.0 4.9 4.0 3.6 4.3 4.2 4.1 3.6 2.9 2.6 3.0 3.0 2.8 2.5 2.9 3.4 3.8 4.4
6.5 6.5 6.5 6.5 6.5 6.5 6.5 6.5 6.5 6.5 6.5 6.5 6.6 6.9 6.9 6.6 5.6 4.7 4.3 3.7 4.4 4.3 3.9 3.8 4.8 5.5 4.8 4.3 5.0 5.6 4.5 4.5 3.9 4.3 4.5 3.7 4.9 3.7 3.2 3.5 3.4 3.3 4.2 2.9 3.1 3.2 3.1 2.4 3.0
6.5 6.5 6.5 6.5 6.5 6.5 6.5 6.5 6.5 6.5 6.5 6.5 6.5 6.7 6.5 6.2 6.3 5.7 4.5 4.8 5.9 5.4 5.2 5.8 5.5 6.2 4.5 4.3 5.0 5.1 5.1 4.5 4.9 4.6 4.9 4.5 4.2 3.4 4.5 2.9 3.6 1.0 3.9 4.4 3.5 2.7 3.1 3.7 3.1
6.5 6.5 6.5 6.5 6.5 6.5 6.5 6.5 6.5 6.5 6.7 6.9 7.0 6.8 6.6 5.8 5.9 5.9 5.5 5.1 6.2 6.5 6.3 6.0 5.6 5.1 4.9 4.5 3.8 3.3 2.8 3.2 4.5 4.2 4.4 4.1 4.2 3.9 4.0 3.3 2.4 1.8 3.7 2.3 2.0 3.5 3.8 3.5 2.5
6.5 6.5 6.5 6.5 6.5 6.5 6.5 6.5 6.5 6.5 6.5 6.6 6.8 6.9 6.8 6.6 6.0 5.7 6.3 6.8 7.0 6.6 6.3 5.7 5.0 4.5 4.4 4.1 3.7 3.2 2.6 2.0 2.4 2.5 3.2 4.1 3.7 3.8 3.8 3.3 3.3 3.2 2.9 2.3 2.5 3.4 3.4 3.1 2.4
6.5 6.5 6.5 6.5 6.5 6.5 6.5 6.5 6.5 6.5 6.5 6.5 6.5 6.8 7.0 7.0 6.5 7.4 6.3 5.9 7.2 6.6 5.7 4.9 4.3 3.7 3.5 3.5 3.3 3.5 2.9 2.7 2.4 2.8 3.0 3.4 3.6 4.0 3.7 3.9 3.2 2.9 2.7 2.4 2.7 2.9 2.2 2.1 2.4
6.5 6.5 6.5 6.5 6.5 6.5 6.5 6.5 6.5 6.5 6.5 6.5 6.6 7.0 7.1 7.0 7.3 7.3 7.3 6.8 6.5 6.2 5.2 4.0 3.5 3.0 2.6 2.6 2.8 2.5 2.4 2.6 2.5 2.7 2.8 3.0 2.9 2.9 2.9 2.7 2.6 2.7 3.1 3.2 3.2 3.1 2.8 2.7 3.3
6.5 6.5 6.5 6.5 6.5 6.5 6.5 6.5 6.5 6.5 6.5 6.7 6.8 7.1 7.1 7.1 6.9 6.8 6.8 6.2 5.3 4.6 3.9 3.5 3.1 2.7 2.4 2.1 2.0 2.1 2.0 2.0 2.1 2.4 2.8 2.9 2.8 2.9 2.6 2.0 2.0 2.1 3.7 3.4 3.1 2.7 2.9 3.2 3.1
Wind_Speed
10 11 7 3 4 6 11 12 13 17 12 16 13 2 6 7 5 2 3 8 3 18 21 20 18 17 16 15 15 14 13 13 14 19 20 21 21 20 19 19 18 17 18 17 16 14 15 16 15
12 8 4 3 7 12 10 14 18 17 19 16 5 5 3 4 11 5 3 2 4 15 21 19 18 17 15 14 15 13 13 14 14 19 20 21 22 21 19 19 18 17 17 18 16 15 14 16 14
7 7 2 4 9 15 9 13 16 16 15 13 4 6 3 4 10 4 7 1 8 15 20 21 19 18 15 16 14 13 10 15 13 19 20 21 22 21 20 19 16 18 18 17 15 13 12 15 13
3 1 3 7 15 16 22 18 20 16 10 10 9 1 4 2 2 8 6 9 10 6 12 24 21 18 14 15 13 12 8 14 14 18 20 21 22 21 20 19 18 18 17 15 15 14 11 13 11
2 3 8 10 17 19 13 18 20 19 17 8 5 6 5 6 8 10 3 13 7 6 13 17 21 19 15 15 14 11 7 11 17 18 21 22 22 21 20 19 18 17 14 12 12 17 13 11 10
3 3 7 14 18 16 17 20 20 15 16 15 7 5 7 8 11 5 5 12 10 9 2 14 18 17 14 14 12 10 7 9 18 19 20 23 23 20 18 21 20 17 15 12 11 12 13 11 10
7 8 12 16 16 16 17 15 17 17 17 15 5 10 3 9 7 11 5 10 12 10 15 4 12 15 14 14 11 9 9 8 17 19 23 23 22 18 18 19 19 16 15 13 12 11 11 10 8
5 7 17 16 14 19 16 17 12 14 22 17 6 6 5 10 14 6 3 5 10 9 12 13 13 10 11 12 13 11 10 11 19 22 20 21 24 19 16 17 16 16 13 12 12 11 10 9 8
6 6 11 16 18 17 14 17 18 13 11 18 10 7 7 18 15 9 2 4 4 4 8 6 9 13 21 10 10 12 13 14 19 20 24 21 17 15 16 14 15 15 13 11 10 10 9 8 7
6 8 14 14 15 14 16 19 17 18 17 11 7 8 4 13 13 11 9 6 4 4 5 8 8 9 17 17 12 12 13 13 16 14 18 14 17 14 15 17 16 15 12 12 10 10 9 10 9
6 14 14 17 18 16 19 21 16 16 18 14 10 10 9 7 8 5 6 8 11 5 1 3 6 6 12 9 14 13 13 14 16 20 15 15 16 16 14 13 13 14 13 11 10 9 9 12 12
12 16 17 18 16 16 18 20 18 16 19 15 10 7 2 6 8 8 7 7 12 10 9 7 4 8 6 8 11 13 9 13 11 18 17 11 10 11 12 10 12 12 14 12 14 12 14 15 13
14 15 16 15 15 15 18 19 19 21 18 19 14 10 1 3 6 4 7 6 5 9 9 11 9 7 5 7 10 10 10 8 11 17 19 14 9 5 8 11 12 12 15 11 11 11 10 9 8
13 17 16 16 16 16 18 18 17 20 17 20 17 11 9 5 3 11 8 8 8 8 7 6 9 9 4 5 9 13 5 12 11 10 10 17 13 6 5 4 6 8 14 11 10 6 4 5 8
10 15 14 14 16 18 16 21 22 15 20 21 18 12 13 9 12 20 12 11 12 8 5 5 3 3 1 5 8 12 5 8 5 8 13 15 15 10 7 5 4 6 9 10 9 7 7 3 4
14 12 11 11 15 21 17 19 17 20 17 20 19 16 9 9 6 9 8 7 10 7 7 7 6 1 8 4 3 9 5 5 5 12 11 13 16 14 7 4 5 10 10 9 3 3 2 2 3
6 9 15 17 15 14 18 17 21 21 16 20 18 10 9 7 10 6 8 8 7 8 7 6 5 4 8 7 4 4 7 6 6 8 8 11 13 12 8 4 5 10 5 3 3 3 3 2 3
5 8 9 11 8 15 16 20 16 10 9 9 16 14 8 7 4 5 6 6 2 7 7 7 6 8 7 5 6 5 4 3 9 5 7 10 9 10 6 3 2 3 4 3 2 3 3 3 4
14 17 20 17 18 8 15 15 20 10 5 6 8 7 7 7 6 4 4 6 5 4 7 8 8 8 4 3 8 5 4 3 3 4 10 11 9 10 7 3 3 3 4 1 2 4 5 3 3
16 18 19 16 16 10 9 16 13 9 2 3 7 7 5 4 8 3 5 7 6 5 2 6 5 5 7 0 1 2 1 3 2 3 4 6 7 6 4 4 3 2 1 0 1 3 2 3 4
16 17 15 12 6 10 7 8 9 4 3 4 4 3 6 8 7 7 8 4 6 3 3 4 3 5 6 5 3 3 3 1 2 2 2 3 6 5 6 5 4 5 4 4 2 2 3 2 2
10 13 17 10 7 3 8 3 8 4 7 4 4 3 7 7 5 5 5 9 1 3 5 2 4 5 4 6 4 1 1 1 2 2 3 2 5 3 7 9 6 5 4 5 5 3 4 4 6
6 1 10 5 4 4 8 2 2 4 3 8 3 6 7 5 7 8 9 9 7 8 5 4 4 1 4 3 3 2 1 2 1 2 3 4 5 8 6 6 5 7 7 9 9 6 6 4 4
5 1 2 1 1 3 1 2 2 3 2 5 3 9 8 5 9 9 10 11 6 5 2 4 4 5 6 4 6 8 7 5 3 3 4 6 5 6 6 8 6 3 3 4 5 6 7 6 5
7 6 2 4 1 3 2 2 2 3 2 5 5 9 9 9 8 10 12 9 7 7 7 6 5 6 5 3 2 11 10 10 12 11 9 9 7 6 8 8 9 4 4 6 5 4 4 7 7
2 5 2 3 3 3 6 3 3 3 6 7 10 9 8 10 8 9 10 9 6 9 8 7 6 7 7 5 5 4 4 2 8 7 7 6 6 5 6 6 4 4 9 5 6 6 7 7 5
3 2 4 3 7 2 4 2 4 5 7 9 10 8 8 7 10 12 10 11 7 7 8 8 8 8 7 6 5 6 6 7 5 5 3 1 1 2 4 5 5 5 4 4 6 6 7 7 5
4 7 3 2 2 3 1 5 3 4 8 8 9 8 8 9 8 8 8 7 6 7 6 7 7 7 7 7 6 5 5 6 6 5 5 6 5 2 3 4 5 5 7 8 9 6 6 6 4
3 4 3 2 2 1 3 3 6 10 8 9 9 8 7 8 7 7 5 6 6 6 6 6 7 7 7 6 5 6 6 6 5 5 5 4 4 5 3 4 3 5 5 6 7 7 7 7 6
4 5 3 3 5 4 5 3 9 10 11 10 9 8 6 6 7 6 6 6 6 6 6 5 6 5 6 6 7 6 7 7 6 6 6 5 4 6 4 4 4 3 4 5 6 6 6 8 7
Wind_Direction
283 284 260 310 240 227 243 234 265 280 280 244 266 221 15 19 29 77 17 342 351 133 149 153 163 160 163 158 153 151 155 163 168 160 155 151 148 142 140 137 137 140 132 126 122 121 108 106 101
314 282 278 269 237 236 235 241 243 244 270 284 323 40 61 87 72 102 58 0 309 142 148 156 169 161 164 163 152 154 163 168 177 168 163 155 151 146 143 141 143 136 124 127 129 124 117 112 106
273 256 263 219 240 235 246 239 223 244 246 257 60 21 51 54 61 98 325 218 63 142 155 152 168 160 165 159 154 155 162 172 180 173 166 158 152 149 146 143 145 128 125 131 127 130 122 117 115
244 234 276 253 243 230 251 269 286 293 255 222 132 97 99 39 64 55 316 333 95 140 152 145 161 160 164 152 156 162 161 181 175 173 166 160 152 148 147 142 144 126 132 139 144 139 135 122 120
237 259 234 237 249 263 260 236 252 273 277 216 209 158 130 98 71 69 7 36 97 125 131 148 157 158 165 155 156 159 160 182 170 173 168 159 151 147 146 148 140 138 142 140 135 142 142 135 125
210 241 245 231 250 254 247 272 282 279 268 275 199 236 189 148 137 85 77 76 50 42 38 150 160 156 162 154 153 154 146 162 169 171 167 157 142 144 146 149 144 145 139 139 126 127 129 128 130
251 238 248 259 267 259 244 251 250 272 280 267 239 203 147 139 168 139 140 98 85 51 42 324 158 157 158 155 148 154 145 144 158 156 150 143 131 145 149 148 148 148 143 141 136 133 132 133 135
258 263 265 260 260 261 276 285 266 236 264 284 292 274 215 176 138 73 124 138 116 109 88 28 347 141 161 155 161 162 152 138 146 140 136 134 131 145 156 156 150 150 143 139 138 138 139 137 138
278 248 251 253 256 273 280 283 287 284 254 258 262 275 311 130 127 127 258 12 329 187 170 118 312 353 345 175 173 168 158 139 123 129 135 132 132 157 155 162 151 147 142 143 145 145 145 152 153
207 235 245 260 279 278 273 270 277 284 282 254 255 284 309 128 147 167 181 199 282 323 303 303 353 348 313 330 174 180 169 154 142 145 148 145 136 158 168 155 153 143 148 152 158 160 171 180 185
238 248 275 285 291 291 293 286 293 297 276 272 248 238 251 154 183 188 179 174 186 147 131 234 185 171 264 283 297 183 180 177 159 158 171 157 163 153 131 145 149 148 158 162 165 176 198 214 215
251 265 277 286 288 287 285 293 297 278 285 303 256 259 160 119 178 237 210 170 168 184 162 223 227 192 234 265 284 220 180 183 175 169 178 181 146 153 153 159 165 169 180 186 184 188 207 227 235
264 263 269 273 272 275 287 273 282 283 285 292 291 274 197 130 338 240 205 184 185 194 201 186 190 203 197 264 297 201 183 181 164 162 185 155 139 151 157 164 169 173 179 200 190 198 203 202 217
295 296 298 299 296 296 275 275 274 266 282 279 278 277 269 208 197 310 231 191 189 213 223 184 196 187 144 284 323 187 187 159 154 155 157 131 136 147 155 159 166 178 177 199 182 205 215 194 205
308 287 283 269 272 273 270 260 256 262 260 275 280 265 268 201 213 212 209 196 186 204 185 188 183 233 107 287 287 205 187 142 130 133 145 149 149 169 171 155 159 171 184 196 208 213 213 206 220
291 286 284 282 254 252 241 260 254 247 257 256 265 256 243 240 243 197 194 221 158 163 172 175 152 208 90 28 254 226 183 158 141 151 169 151 150 165 162 157 169 194 190 192 185 204 226 216 223
229 271 264 278 257 245 209 246 248 255 243 236 248 245 261 228 229 199 190 191 155 163 171 172 173 168 143 147 272 229 165 171 161 143 137 150 154 170 164 168 185 190 175 161 186 220 177 195 245
249 252 276 277 282 288 218 234 263 248 218 254 236 242 238 224 105 39 79 63 223 178 170 163 195 163 181 137 216 229 154 159 159 163 164 166 171 179 165 156 195 181 154 152 165 222 229 200 214
261 268 273 275 279 292 238 232 243 245 259 7 333 315 231 198 79 74 92 102 85 207 152 168 189 175 175 141 187 197 161 182 137 140 159 162 173 189 177 153 104 80 79 132 221 206 212 252 237
248 260 269 280 269 256 239 232 244 214 239 316 321 309 318 103 74 149 164 86 82 340 191 176 179 174 169 242 3 59 98 162 169 142 122 137 139 135 134 153 179 221 159 166 150 87 346 227 207
265 260 266 266 301 239 265 222 227 292 244 284 285 308 3 121 124 109 88 61 54 301 342 163 144 129 108 92 53 50 57 58 74 85 150 49 68 122 137 164 164 171 165 236 240 233 189 295 309
269 241 248 264 210 202 186 190 200 353 306 279 305 67 54 57 100 114 100 53 191 315 24 28 191 118 119 119 112 135 155 105 119 163 92 65 335 183 187 197 196 182 173 190 206 207 205 179 246
243 159 161 232 210 149 212 220 101 357 2 9 0 86 79 82 83 59 57 65 353 349 342 324 317 130 143 139 198 198 153 164 264 65 216 240 222 246 241 219 189 194 194 197 185 186 206 201 217
232 217 229 186 235 178 133 267 88 347 315 326 37 52 71 83 75 67 69 47 12 333 300 302 286 327 351 334 265 222 216 208 201 177 218 228 228 233 220 237 220 176 274 196 181 171 183 177 161
208 277 219 195 130 73 274 66 80 355 23 287 103 60 48 54 64 69 66 52 11 11 33 46 61 54 57 19 238 245 225 217 217 213 214 214 217 231 228 208 226 172 221 204 156 150 189 206 171
245 209 286 320 89 95 12 18 13 354 84 84 83 75 69 55 66 66 70 57 41 15 30 55 57 56 46 50 27 10 20 28 221 194 222 228 224 216 212 212 217 141 207 188 140 179 199 209 160
303 30 258 294 113 102 127 131 124 73 70 73 75 79 83 87 56 55 44 66 37 34 33 36 39 37 27 25 29 39 16 21 25 6 350 51 279 291 266 242 238 206 201 174 169 188 197 197 177
241 302 11 263 59 66 59 62 58 84 113 98 92 97 86 86 77 79 74 56 47 43 26 33 40 35 20 10 19 34 41 29 14 8 10 358 343 331 295 257 224 223 209 192 186 185 174 165 169
320 325 278 258 137 100 112 44 105 109 109 102 91 71 74 85 78 79 78 69 53 55 57 37 32 28 13 3 12 24 19 15 14 7 3 0 338 326 317 297 256 209 198 186 181 175 169 170 180
274 318 339 62 339 19 90 59 89 97 99 97 92 87 76 64 67 66 70 76 53 39 31 44 36 38 14 7 3 12 21 10 6 0 348 338 355 322 284 295 281 238 205 188 182 174 176 185 182